User: anonymous
Location: Owatonna
(44.0840°N, 93.2260°W)
Time: 18:32:41
(UTC-05:00)
Language:

Cosmos 1500 Rocket - Orbit

View from above orbital plane
View from above orbital plane
View from above satellite
View from above satellite

Ground track
Ground track

The orbit data is extracted from the following two-line orbital elements,

1 14373U 83099B   14244.27753711  .00000224  00000-0  24430-4 0  7471
2 14373 082.5403 117.4287 0019869 355.9270 142.5801 14.83129482669662
Epoch (UTC): 01 September 2014 06:39:39
Eccentricity: 0.0019869
inclination: 82.5403°
perigee height: 605 km
apogee height: 633 km
right ascension of ascending node: 117.4287°
argument of perigee: 355.9270°
revolutions per day: 14.83129482
mean anomaly at epoch: 142.5801°
orbit number at epoch: 66966

The dashed part of the orbit path shows where the satellite is in the earth's shadow,  

DLR